TRA48C LGKO-EHAM

Flight info

Callsign TRA48C
Flight time N/A
Altitude 36000
Route LARKI UL609 MES DCT DISOR DCT LONTA/N0455F380 UL608 DOLEV DCT IRDIV DCT PODET DCT SIMBA DCT GASKA DCT MAPOX DCT NORKU
Aircraft B738/M-SDE2E3FGHIRWXY/LB1

Departure

Time 2026-05-07 16:38
Airport Kos International Airport "Ippokratis" (LGKO)

Arrival

Time N/A
Airport Amsterdam Airport Schiphol (EHAM)
Time Latitude Longitude Altitude Speed Heading
2026-05-07 16:14 36.80011 27.09036 409 ft 0 kts 58°
2026-05-07 16:29 36.80008 27.09032 418 ft 3 kts 58°
2026-05-07 16:29 36.79997 27.09008 412 ft 3 kts 65°
2026-05-07 16:29 36.79989 27.08982 413 ft 3 kts 76°
2026-05-07 16:29 36.79987 27.08955 409 ft 3 kts 102°
2026-05-07 16:30 36.79994 27.08936 408 ft 1 kts 147°
2026-05-07 16:30 36.79995 27.08936 408 ft 0 kts 147°
2026-05-07 16:32 36.79994 27.08937 408 ft 1 kts 147°
2026-05-07 16:32 36.79972 27.08954 414 ft 6 kts 147°
2026-05-07 16:32 36.79916 27.08980 410 ft 11 kts 176°
2026-05-07 16:33 36.79826 27.08984 411 ft 14 kts 178°
2026-05-07 16:33 36.79731 27.08988 414 ft 14 kts 178°
2026-05-07 16:33 36.79637 27.08992 413 ft 14 kts 172°
2026-05-07 16:33 36.79535 27.09053 417 ft 20 kts 148°
2026-05-07 16:34 36.79405 27.09155 411 ft 25 kts 148°
2026-05-07 16:34 36.79239 27.09285 407 ft 31 kts 148°
2026-05-07 16:34 36.79109 27.09385 401 ft 35 kts 148°
2026-05-07 16:34 36.78899 27.09547 396 ft 35 kts 148°
2026-05-07 16:35 36.78695 27.09706 392 ft 32 kts 148°
2026-05-07 16:35 36.78593 27.09824 388 ft 10 kts 128°
2026-05-07 16:35 36.78570 27.09832 387 ft 3 kts 200°
2026-05-07 16:35 36.78568 27.09810 387 ft 3 kts 296°
2026-05-07 16:36 36.78585 27.09794 388 ft 5 kts 329°
2026-05-07 16:36 36.78609 27.09776 390 ft 0 kts 329°
2026-05-07 16:36 36.78615 27.09772 390 ft 10 kts 329°
2026-05-07 16:36 36.78898 27.09551 396 ft 85 kts 328°
2026-05-07 16:37 36.79584 27.09017 409 ft 147 kts 328°
2026-05-07 16:37 36.80550 27.08252 826 ft 171 kts 327°
2026-05-07 16:37 36.80739 27.08104 972 ft 173 kts 327°
2026-05-07 16:38 36.81450 27.07492 1579 ft 177 kts 315°
2026-05-07 16:38 36.81999 27.06071 2184 ft 198 kts 275°
2026-05-07 16:39 36.81823 27.04315 2708 ft 211 kts 265°
2026-05-07 16:39 36.82099 27.02532 3237 ft 216 kts 300°
2026-05-07 16:39 36.82901 27.00936 3875 ft 218 kts 305°
2026-05-07 16:39 36.83742 26.99340 4526 ft 223 kts 305°
2026-05-07 16:40 36.84619 26.97705 5165 ft 230 kts 306°
2026-05-07 16:40 36.85554 26.95963 5425 ft 258 kts 305°
2026-05-07 16:40 36.86561 26.94045 6150 ft 267 kts 304°
2026-05-07 16:40 36.87574 26.92079 7035 ft 269 kts 304°
2026-05-07 16:41 36.88583 26.90094 7912 ft 271 kts 304°
2026-05-07 16:41 36.89594 26.88088 8765 ft 274 kts 304°
2026-05-07 16:41 36.90591 26.86101 9605 ft 277 kts 304°
2026-05-07 16:41 36.91947 26.84410 10370 ft 279 kts 333°
2026-05-07 16:42 36.93870 26.83757 10656 ft 302 kts 356°
2026-05-07 16:42 36.96068 26.83713 10866 ft 326 kts 359°
2026-05-07 16:42 36.98382 26.83733 11158 ft 344 kts 359°
2026-05-07 16:42 37.00811 26.83767 11791 ft 350 kts 359°
2026-05-07 16:43 37.03265 26.83795 12548 ft 353 kts 359°
2026-05-07 16:43 37.05736 26.83813 13310 ft 356 kts 359°
2026-05-07 16:43 37.08225 26.83822 14021 ft 360 kts 358°
2026-05-07 16:43 37.10718 26.83825 14650 ft 363 kts 358°
2026-05-07 16:44 37.13267 26.83825 15309 ft 367 kts 358°
2026-05-07 16:44 37.21229 26.83818 17275 ft 377 kts 358°
2026-05-07 16:45 37.23876 26.83815 17890 ft 381 kts 357°
2026-05-07 16:45 37.26544 26.83812 18502 ft 384 kts 357°
2026-05-07 16:45 37.27669 26.83811 18721 ft 386 kts 357°
2026-05-07 16:45 37.28809 26.83810 18956 ft 387 kts 357°
2026-05-07 16:46 37.31511 26.83808 19531 ft 389 kts 357°
2026-05-07 16:46 37.34188 26.83699 20095 ft 388 kts 350°
2026-05-07 16:46 37.36822 26.82921 20649 ft 388 kts 339°
2026-05-07 16:46 37.39303 26.81588 21200 ft 388 kts 330°
2026-05-07 16:47 37.41560 26.79702 21719 ft 389 kts 322°
2026-05-07 16:47 37.43715 26.77607 22254 ft 391 kts 321°
2026-05-07 16:47 37.45851 26.75471 22762 ft 394 kts 321°
2026-05-07 16:47 37.47972 26.73338 23259 ft 396 kts 321°
2026-05-07 16:48 37.50141 26.71163 23755 ft 398 kts 321°
2026-05-07 16:48 37.52318 26.68991 24159 ft 400 kts 321°
2026-05-07 16:48 37.54512 26.66810 24560 ft 402 kts 321°
2026-05-07 16:48 37.56684 26.64660 24948 ft 404 kts 321°
2026-05-07 16:49 37.58915 26.62453 25340 ft 406 kts 321°
2026-05-07 16:49 37.61144 26.60250 25739 ft 407 kts 321°
2026-05-07 16:49 37.63382 26.58039 26124 ft 409 kts 321°
2026-05-07 16:49 37.65569 26.55877 26911 ft 399 kts 321°
2026-05-07 16:50 37.67750 26.53720 27470 ft 397 kts 321°
2026-05-07 16:50 37.69942 26.51550 27772 ft 401 kts 321°
2026-05-07 16:50 37.72149 26.49363 28059 ft 405 kts 321°
2026-05-07 16:50 37.74376 26.47154 28407 ft 407 kts 321°
2026-05-07 16:51 37.76582 26.44964 28773 ft 408 kts 321°
2026-05-07 16:51 37.78827 26.42735 29129 ft 410 kts 321°
2026-05-07 16:51 37.81088 26.40487 29458 ft 412 kts 321°
2026-05-07 16:51 37.83351 26.38236 29795 ft 414 kts 321°
2026-05-07 16:52 37.85601 26.35996 30085 ft 416 kts 321°
2026-05-07 16:52 37.87879 26.33725 30414 ft 417 kts 321°
2026-05-07 16:52 37.89398 26.32211 30685 ft 415 kts 321°
2026-05-07 16:52 37.92401 26.29214 31240 ft 412 kts 321°
2026-05-07 16:53 37.93900 26.27717 31479 ft 411 kts 321°
2026-05-07 16:53 37.96147 26.25472 31807 ft 411 kts 321°
2026-05-07 16:53 37.99123 26.22495 32277 ft 410 kts 321°
2026-05-07 16:53 38.01366 26.20249 32643 ft 408 kts 321°
2026-05-07 16:54 38.02873 26.18739 32875 ft 408 kts 321°
2026-05-07 16:54 38.04690 26.16917 33145 ft 407 kts 321°
2026-05-07 16:55 38.05571 26.16034 33286 ft 407 kts 321°
2026-05-07 16:55 38.07795 26.13802 33630 ft 406 kts 320°
2026-05-07 16:55 38.10014 26.11573 33952 ft 405 kts 320°
2026-05-07 16:56 38.12222 26.09354 34236 ft 405 kts 320°
2026-05-07 16:56 38.14436 26.07126 34493 ft 404 kts 320°
2026-05-07 16:56 38.18812 26.02718 34926 ft 404 kts 320°
2026-05-07 16:57 38.21016 26.00495 35125 ft 404 kts 320°
2026-05-07 16:57 38.23222 25.98270 35352 ft 404 kts 320°
2026-05-07 16:57 38.25424 25.96046 35593 ft 403 kts 320°
2026-05-07 16:57 38.27596 25.93850 35800 ft 403 kts 320°
2026-05-07 16:58 38.29792 25.91628 35988 ft 403 kts 320°
2026-05-07 16:58 38.31985 25.89409 36213 ft 402 kts 320°
2026-05-07 16:58 38.34184 25.87181 36426 ft 402 kts 320°
2026-05-07 16:58 38.36373 25.84961 36616 ft 402 kts 320°
2026-05-07 16:59 38.38537 25.82765 36802 ft 402 kts 320°
2026-05-07 16:59 38.40727 25.80541 37009 ft 401 kts 320°
2026-05-07 16:59 38.42912 25.78319 37186 ft 401 kts 320°
2026-05-07 16:59 38.45103 25.76091 37348 ft 401 kts 320°
2026-05-07 17:00 38.47293 25.73861 37525 ft 401 kts 320°
2026-05-07 17:00 38.49476 25.71637 37710 ft 401 kts 320°
2026-05-07 17:00 38.51635 25.69436 37880 ft 401 kts 320°
2026-05-07 17:00 38.53799 25.67227 38029 ft 401 kts 320°
2026-05-07 17:01 38.58179 25.62752 38115 ft 403 kts 320°
2026-05-07 17:01 38.62539 25.58290 38119 ft 402 kts 320°
2026-05-07 17:02 38.66905 25.53816 38124 ft 401 kts 320°
2026-05-07 17:02 38.71258 25.49346 38119 ft 399 kts 320°
2026-05-07 17:03 38.75567 25.44915 38123 ft 399 kts 320°
2026-05-07 17:03 38.79895 25.40458 38114 ft 398 kts 320°
2026-05-07 17:04 38.84219 25.35998 38124 ft 398 kts 320°
2026-05-07 17:04 38.88566 25.31506 38128 ft 403 kts 320°
2026-05-07 17:05 38.92929 25.26989 38123 ft 407 kts 320°
2026-05-07 17:05 38.97358 25.22398 38117 ft 409 kts 320°
2026-05-07 17:06 39.01763 25.17824 38100 ft 405 kts 320°
2026-05-07 17:06 39.06106 25.13308 38105 ft 397 kts 320°
2026-05-07 17:07 39.10377 25.08859 38112 ft 396 kts 320°
2026-05-07 17:07 39.14677 25.04372 38113 ft 396 kts 320°
2026-05-07 17:08 39.18935 24.99921 38113 ft 396 kts 320°
2026-05-07 17:08 39.23225 24.95431 38114 ft 397 kts 320°
2026-05-07 17:09 39.27519 24.90928 38117 ft 397 kts 320°
2026-05-07 17:09 39.31795 24.86437 38111 ft 398 kts 319°
2026-05-07 17:10 39.36108 24.81900 38116 ft 399 kts 319°
2026-05-07 17:10 39.40404 24.77374 38107 ft 400 kts 319°
2026-05-07 17:11 39.44724 24.72815 38114 ft 400 kts 319°
2026-05-07 17:11 39.49011 24.68283 38111 ft 400 kts 319°
2026-05-07 17:12 39.53334 24.63705 38115 ft 400 kts 319°
2026-05-07 17:12 39.57625 24.59154 38110 ft 400 kts 319°
2026-05-07 17:13 39.61942 24.54568 38109 ft 399 kts 319°
2026-05-07 17:13 39.66215 24.50020 38107 ft 398 kts 319°
2026-05-07 17:14 39.70506 24.45446 38112 ft 397 kts 319°
2026-05-07 17:14 39.74755 24.40910 38109 ft 396 kts 319°
2026-05-07 17:15 39.78996 24.36374 38112 ft 395 kts 319°
2026-05-07 17:15 39.83243 24.31825 38116 ft 394 kts 319°
2026-05-07 17:16 39.87455 24.27305 38108 ft 393 kts 319°
2026-05-07 17:16 39.91683 24.22761 38112 ft 393 kts 319°
2026-05-07 17:17 39.95875 24.18248 38113 ft 392 kts 319°
2026-05-07 17:17 40.00093 24.13701 38108 ft 392 kts 318°
2026-05-07 17:18 40.04272 24.09186 38111 ft 392 kts 318°
2026-05-07 17:18 40.08483 24.04631 38107 ft 392 kts 318°
2026-05-07 17:19 40.12671 24.00092 38111 ft 392 kts 318°
2026-05-07 17:19 40.16890 23.95512 38111 ft 392 kts 318°
2026-05-07 17:20 40.21063 23.90975 38113 ft 393 kts 318°
2026-05-07 17:20 40.25268 23.86395 38112 ft 393 kts 318°
2026-05-07 17:21 40.29464 23.81819 38112 ft 393 kts 318°
2026-05-07 17:21 40.33672 23.77220 38111 ft 393 kts 318°
2026-05-07 17:22 40.37840 23.72658 38116 ft 392 kts 317°
2026-05-07 17:22 40.42034 23.68060 38110 ft 392 kts 317°
2026-05-07 17:23 40.46202 23.63482 38122 ft 392 kts 317°
2026-05-07 17:23 40.50386 23.58879 38112 ft 392 kts 317°
2026-05-07 17:24 40.54583 23.54255 38118 ft 391 kts 317°
2026-05-07 17:24 40.58730 23.49676 38116 ft 391 kts 317°
2026-05-07 17:25 40.62904 23.45062 38113 ft 390 kts 317°
2026-05-07 17:25 40.67040 23.40481 38117 ft 389 kts 317°
2026-05-07 17:26 40.71187 23.35881 38115 ft 388 kts 317°
2026-05-07 17:26 40.75298 23.31313 38116 ft 388 kts 317°
2026-05-07 17:27 40.79429 23.26714 38118 ft 387 kts 316°
2026-05-07 17:27 40.83555 23.22113 38117 ft 387 kts 316°
2026-05-07 17:28 40.87656 23.17533 38126 ft 387 kts 316°
2026-05-07 17:28 40.91744 23.12959 38115 ft 387 kts 316°
2026-05-07 17:29 40.95858 23.08348 38129 ft 386 kts 316°
2026-05-07 17:29 40.99966 23.03737 38122 ft 387 kts 316°
2026-05-07 17:30 41.04075 22.99115 38129 ft 387 kts 316°
2026-05-07 17:30 41.08171 22.94502 38117 ft 388 kts 316°
2026-05-07 17:31 41.12264 22.89884 38133 ft 388 kts 316°
2026-05-07 17:31 41.16377 22.85235 38118 ft 387 kts 315°
2026-05-07 17:32 41.20465 22.80606 38126 ft 388 kts 315°
2026-05-07 17:32 41.23885 22.76728 38126 ft 387 kts 315°
2026-05-07 17:33 41.28219 22.70772 38132 ft 384 kts 309°
2026-05-07 17:33 41.31811 22.65467 38124 ft 384 kts 309°
2026-05-07 17:34 41.35380 22.60204 38130 ft 384 kts 309°
2026-05-07 17:34 41.38978 22.54911 38124 ft 384 kts 309°
2026-05-07 17:35 41.42571 22.49626 38123 ft 384 kts 308°
2026-05-07 17:35 41.46134 22.44378 38130 ft 383 kts 308°
2026-05-07 17:36 41.49724 22.39081 38118 ft 384 kts 308°
2026-05-07 17:36 41.53292 22.33808 38121 ft 383 kts 308°
2026-05-07 17:37 41.56836 22.28560 38115 ft 382 kts 308°
2026-05-07 17:37 41.60406 22.23266 38110 ft 382 kts 308°
2026-05-07 17:38 41.63956 22.17989 38118 ft 382 kts 308°
2026-05-07 17:38 41.67501 22.12716 38112 ft 382 kts 308°
2026-05-07 17:39 41.71062 22.07402 38113 ft 383 kts 308°
2026-05-07 17:39 41.74602 22.02113 38113 ft 383 kts 308°
2026-05-07 17:40 41.78166 21.96779 38103 ft 384 kts 308°
2026-05-07 17:40 41.81733 21.91431 38092 ft 385 kts 308°
2026-05-07 17:41 41.85281 21.86102 38093 ft 385 kts 307°
2026-05-07 17:41 41.88860 21.80715 38084 ft 386 kts 307°
2026-05-07 17:42 41.92398 21.75384 38066 ft 381 kts 306°
2026-05-07 17:42 41.95319 21.70976 38064 ft 378 kts 306°
2026-05-07 17:43 41.98810 21.65694 38082 ft 376 kts 306°
2026-05-07 17:43 42.02268 21.60453 38076 ft 376 kts 306°
2026-05-07 17:44 42.05752 21.55162 38084 ft 377 kts 306°
2026-05-07 17:44 42.09226 21.49876 38093 ft 380 kts 306°
2026-05-07 17:45 42.12751 21.44507 38097 ft 383 kts 306°
2026-05-07 17:45 42.16281 21.39117 38091 ft 386 kts 306°
2026-05-07 17:46 42.19788 21.33603 38107 ft 388 kts 305°
2026-05-07 17:46 42.23276 21.28050 38106 ft 391 kts 305°
2026-05-07 17:47 42.26811 21.22423 38099 ft 393 kts 305°
2026-05-07 17:47 42.30351 21.16790 38094 ft 393 kts 306°
2026-05-07 17:48 42.33869 21.11183 38097 ft 393 kts 306°
2026-05-07 17:48 42.37408 21.05536 38103 ft 392 kts 306°
2026-05-07 17:49 42.41179 21.00128 38096 ft 394 kts 310°
2026-05-07 17:49 42.45038 20.94937 38096 ft 393 kts 310°
2026-05-07 17:50 42.48900 20.89710 38095 ft 393 kts 309°
2026-05-07 17:50 42.52747 20.84443 38107 ft 393 kts 309°
2026-05-07 17:51 42.56591 20.79145 38098 ft 395 kts 309°
2026-05-07 17:51 42.60447 20.73813 38094 ft 397 kts 309°
2026-05-07 17:52 42.64321 20.68445 38093 ft 398 kts 309°
2026-05-07 17:52 42.67764 20.63665 38079 ft 400 kts 309°
2026-05-07 17:53 42.71418 20.58585 38081 ft 401 kts 309°
2026-05-07 17:53 42.75255 20.53241 38067 ft 402 kts 309°
2026-05-07 17:54 42.79171 20.47776 38072 ft 403 kts 309°
2026-05-07 17:54 42.83089 20.42298 38067 ft 404 kts 309°
2026-05-07 17:55 42.87014 20.36800 38074 ft 404 kts 309°
2026-05-07 17:55 42.90940 20.31289 38080 ft 404 kts 309°
2026-05-07 17:56 42.94842 20.25802 38064 ft 405 kts 309°
2026-05-07 17:56 42.98767 20.20271 38080 ft 404 kts 309°
2026-05-07 17:57 43.02002 20.15705 38079 ft 403 kts 309°
2026-05-07 17:57 43.05947 20.10125 38057 ft 404 kts 309°
2026-05-07 17:58 43.09863 20.04575 38059 ft 404 kts 309°
2026-05-07 17:58 43.13775 19.99021 38064 ft 405 kts 309°
2026-05-07 17:59 43.17665 19.93487 38052 ft 405 kts 309°
2026-05-07 17:59 43.21574 19.87915 38063 ft 405 kts 309°
2026-05-07 18:00 43.25472 19.82348 38064 ft 406 kts 309°
2026-05-07 18:00 43.29376 19.76761 38050 ft 407 kts 309°
2026-05-07 18:01 43.33298 19.71136 38054 ft 408 kts 309°
2026-05-07 18:01 43.37207 19.65520 38052 ft 408 kts 309°
2026-05-07 18:02 43.41034 19.60024 38056 ft 391 kts 308°
2026-05-07 18:02 43.42922 19.57300 38054 ft 394 kts 308°
2026-05-07 18:03 43.46719 19.51807 38069 ft 402 kts 308°
2026-05-07 18:03 43.50616 19.46162 38060 ft 410 kts 308°
2026-05-07 18:04 43.54560 19.40444 38056 ft 415 kts 309°
2026-05-07 18:04 43.58558 19.34641 38043 ft 416 kts 308°
2026-05-07 18:05 43.62516 19.28889 38051 ft 408 kts 308°
2026-05-07 18:05 43.66395 19.23233 38060 ft 408 kts 308°
2026-05-07 18:06 43.70303 19.17519 38046 ft 409 kts 308°
2026-05-07 18:06 43.74227 19.11769 38044 ft 410 kts 308°
2026-05-07 18:07 43.78132 19.06040 38045 ft 410 kts 308°
2026-05-07 18:07 43.82056 19.00270 38052 ft 411 kts 308°
2026-05-07 18:08 43.85956 18.94525 38051 ft 411 kts 308°
2026-05-07 18:08 43.89876 18.88737 38046 ft 410 kts 308°
2026-05-07 18:09 43.93789 18.82947 38056 ft 411 kts 308°
2026-05-07 18:09 43.97678 18.77182 38043 ft 411 kts 308°
2026-05-07 18:10 44.01573 18.71396 38047 ft 412 kts 308°
2026-05-07 18:10 44.05492 18.65561 38052 ft 412 kts 308°
2026-05-07 18:11 44.09422 18.59698 38041 ft 413 kts 307°
2026-05-07 18:11 44.13332 18.53853 38039 ft 414 kts 307°
2026-05-07 18:12 44.17259 18.47969 38038 ft 414 kts 307°
2026-05-07 18:12 44.21172 18.42096 38034 ft 416 kts 307°
2026-05-07 18:13 44.25114 18.36166 38035 ft 417 kts 307°
2026-05-07 18:13 44.29047 18.30236 38038 ft 418 kts 307°
2026-05-07 18:14 44.33020 18.24234 38037 ft 420 kts 307°
2026-05-07 18:14 44.36964 18.18263 38035 ft 421 kts 307°
2026-05-07 18:15 44.40938 18.12235 38030 ft 420 kts 307°
2026-05-07 18:15 44.44904 18.06205 38035 ft 420 kts 307°
2026-05-07 18:16 44.48836 18.00214 38028 ft 419 kts 307°
2026-05-07 18:16 44.52766 17.94213 38031 ft 418 kts 307°
2026-05-07 18:17 44.56707 17.88182 38029 ft 418 kts 307°
2026-05-07 18:17 44.60617 17.82185 38027 ft 418 kts 307°
2026-05-07 18:18 44.64546 17.76146 38026 ft 417 kts 307°
2026-05-07 18:18 44.68447 17.70136 38024 ft 417 kts 307°
2026-05-07 18:19 44.72355 17.64104 38036 ft 417 kts 307°
2026-05-07 18:19 44.76247 17.58082 38032 ft 418 kts 307°
2026-05-07 18:20 44.80173 17.51996 38031 ft 418 kts 307°
2026-05-07 18:20 44.84068 17.45944 38014 ft 419 kts 306°
2026-05-07 18:21 44.87986 17.39843 38034 ft 418 kts 306°
2026-05-07 18:21 44.91877 17.33771 38028 ft 419 kts 306°
2026-05-07 18:22 44.95794 17.27645 38022 ft 419 kts 306°
2026-05-07 18:22 44.99681 17.21552 38025 ft 420 kts 306°
2026-05-07 18:23 45.03592 17.15408 38024 ft 420 kts 306°
2026-05-07 18:23 45.07591 17.09345 38020 ft 422 kts 310°
2026-05-07 18:24 45.11916 17.03670 38034 ft 424 kts 311°
2026-05-07 18:24 45.16266 16.98090 38026 ft 424 kts 311°
2026-05-07 18:25 45.20638 16.92419 38023 ft 424 kts 311°
2026-05-07 18:25 45.24966 16.86752 38022 ft 424 kts 311°
2026-05-07 18:26 45.29301 16.81046 38020 ft 424 kts 311°
2026-05-07 18:26 45.33610 16.75360 38019 ft 424 kts 311°
2026-05-07 18:27 45.37942 16.69632 38015 ft 424 kts 311°
2026-05-07 18:27 45.42243 16.63933 38019 ft 424 kts 311°
2026-05-07 18:28 45.46574 16.58182 38017 ft 425 kts 311°
2026-05-07 18:28 45.50878 16.52454 38015 ft 425 kts 311°
2026-05-07 18:29 45.54480 16.47651 38014 ft 425 kts 311°
2026-05-07 18:29 45.58810 16.41865 38009 ft 426 kts 311°
2026-05-07 18:30 45.63120 16.36095 38003 ft 426 kts 310°
2026-05-07 18:30 45.67449 16.30284 38000 ft 426 kts 310°
2026-05-07 18:31 45.71782 16.24456 37999 ft 427 kts 310°
2026-05-07 18:31 45.76081 16.18661 37998 ft 427 kts 310°
2026-05-07 18:32 45.80415 16.12806 37995 ft 427 kts 310°
2026-05-07 18:32 45.84752 16.06932 37998 ft 428 kts 310°
2026-05-07 18:33 45.89069 16.01073 37989 ft 428 kts 310°
2026-05-07 18:33 45.92185 15.96836 37994 ft 427 kts 310°
2026-05-07 18:34 45.96479 15.90985 37991 ft 427 kts 310°
2026-05-07 18:34 46.00797 15.85090 37983 ft 427 kts 310°
2026-05-07 18:35 46.05093 15.79209 37980 ft 427 kts 310°
2026-05-07 18:35 46.09384 15.73322 37984 ft 427 kts 310°
2026-05-07 18:36 46.13696 15.67393 37980 ft 427 kts 310°
2026-05-07 18:36 46.18006 15.61522 37978 ft 428 kts 312°
2026-05-07 18:37 46.22569 15.55936 37980 ft 430 kts 314°
2026-05-07 18:37 46.27203 15.50441 37971 ft 431 kts 314°
2026-05-07 18:38 46.31797 15.44945 37986 ft 430 kts 314°
2026-05-07 18:38 46.36408 15.39373 37996 ft 430 kts 314°
2026-05-07 18:39 46.40979 15.33817 37990 ft 430 kts 314°
2026-05-07 18:39 46.45546 15.28250 37996 ft 431 kts 314°
2026-05-07 18:40 46.50145 15.22631 37994 ft 431 kts 314°
2026-05-07 18:40 46.54720 15.17031 38001 ft 431 kts 314°
2026-05-07 18:41 46.59311 15.11400 37986 ft 431 kts 314°
2026-05-07 18:41 46.63880 15.05779 38006 ft 432 kts 314°
2026-05-07 18:42 46.68485 15.00102 38006 ft 432 kts 314°
2026-05-07 18:42 46.73057 14.94454 38014 ft 433 kts 314°
2026-05-07 18:43 46.77659 14.88754 38005 ft 434 kts 314°
2026-05-07 18:43 46.82281 14.83018 38008 ft 435 kts 314°
2026-05-07 18:44 46.86876 14.77301 38028 ft 435 kts 314°
2026-05-07 18:44 46.91502 14.71532 38034 ft 436 kts 315°
2026-05-07 18:45 46.96116 14.65765 38037 ft 437 kts 314°
2026-05-07 18:45 47.00732 14.59984 38043 ft 436 kts 314°
2026-05-07 18:46 47.05313 14.54231 38057 ft 435 kts 314°
2026-05-07 18:46 47.09923 14.48428 38054 ft 435 kts 315°
2026-05-07 18:47 47.14515 14.42634 38056 ft 434 kts 314°
2026-05-07 18:47 47.19077 14.36864 38063 ft 433 kts 314°
2026-05-07 18:48 47.23640 14.31080 38086 ft 431 kts 314°
2026-05-07 18:48 47.28162 14.25334 38061 ft 431 kts 315°
2026-05-07 18:49 47.32681 14.19580 38073 ft 428 kts 314°
2026-05-07 18:49 47.37152 14.13869 38092 ft 428 kts 314°
2026-05-07 18:50 47.41666 14.08092 38097 ft 429 kts 314°
2026-05-07 18:50 47.46202 14.02272 38073 ft 432 kts 314°
2026-05-07 18:51 47.50721 13.96460 38089 ft 434 kts 315°
2026-05-07 18:51 47.55310 13.90545 38077 ft 437 kts 315°
2026-05-07 18:52 47.59885 13.84635 38083 ft 438 kts 315°
2026-05-07 18:52 47.64497 13.78663 38083 ft 440 kts 315°
2026-05-07 18:53 47.69081 13.72712 38065 ft 440 kts 315°
2026-05-07 18:53 47.73691 13.66714 38073 ft 439 kts 315°
2026-05-07 18:54 47.78251 13.60767 38074 ft 437 kts 314°
2026-05-07 18:54 47.82820 13.54791 38078 ft 436 kts 315°
2026-05-07 18:55 47.87350 13.48852 38055 ft 434 kts 315°
2026-05-07 18:55 47.91882 13.42897 38068 ft 433 kts 315°
2026-05-07 18:56 47.96354 13.37005 38063 ft 432 kts 315°